Date,TemperatureHighF,TemperatureAvgF,TemperatureLowF,DewpointHighF,DewpointAvgF,DewpointLowF,HumidityHigh,HumidityAvg,HumidityLow,PressureMaxIn,PressureMinIn,WindSpeedMaxMPH,WindSpeedAvgMPH,GustSpeedMaxMPH,PrecipitationSumIn
2012-10-25,43.3,43.2,43.0,38.8,38.1,37.4,84,82,80,30.35,30.32,10,6,17,0.08
2012-10-26,49.1,42.6,37.9,37.3,32.3,29.6,79,67,50,30.51,30.33,13,5,17,0.00
2012-10-27,53.2,41.5,33.3,32.1,28.5,22.7,82,62,32,30.52,30.31,10,3,12,0.00
2012-10-28,53.8,42.2,30.0,36.4,28.7,24.4,88,61,34,30.48,30.33,8,2,12,0.00
2012-10-29,61.3,44.5,28.9,34.4,27.8,20.3,89,57,25,30.50,30.25,6,1,8,0.38
2012-10-30,64.2,49.1,32.9,40.7,33.5,27.3,85,58,31,30.28,30.00,4,1,5,0.00
2012-10-31,68.7,54.3,43.2,39.8,36.0,28.2,83,53,26,30.19,30.05,6,2,8,0.00
2012-11-1,78.6,56.3,37.8,43.7,39.4,35.6,95,59,23,30.22,29.99,5,1,7,0.00
2012-11-2,83.5,63.3,45.1,54.4,47.9,40.3,85,60,34,30.10,29.93,5,2,6,0.00
2012-11-3,67.3,59.3,47.3,54.6,43.4,36.2,77,57,37,30.31,30.02,8,3,9,0.00
2012-11-4,68.4,51.1,36.3,42.0,37.3,29.3,98,63,26,30.37,30.17,6,2,8,0.00
2012-11-5,62.8,51.6,44.1,48.7,42.2,38.8,89,71,50,30.22,30.08,8,3,11,0.00
2012-11-6,60.1,49.5,42.3,42.0,38.9,31.7,95,68,46,30.25,30.09,7,2,8,0.00
2012-11-7,60.1,48.6,38.5,33.2,29.5,24.3,69,50,26,30.29,30.17,10,3,13,0.00
2012-11-8,71.2,53.1,36.3,41.6,35.7,28.7,78,55,26,30.30,30.08,13,6,18,0.00
2012-11-9,72.7,64.1,53.2,57.1,52.1,41.2,79,65,55,30.12,29.99,14,6,23,0.00
2012-11-10,74.3,66.9,59.7,55.6,52.9,48.6,76,62,42,30.12,29.94,22,8,29,0.00
2012-11-11,68.5,53.4,32.0,59.1,48.7,26.8,99,85,67,30.42,29.89,21,6,29,0.68
2012-11-12,50.4,37.1,25.9,30.1,22.2,15.4,81,57,27,30.64,30.42,6,2,9,0.00
2012-11-13,56.5,40.1,25.2,33.6,22.9,14.5,85,56,22,30.67,30.43,7,2,8,0.00
2012-11-14,59.9,44.7,32.5,34.7,26.0,18.6,83,52,24,30.57,30.39,5,1,7,0.00
2012-11-15,62.6,45.5,30.6,33.1,27.6,22.6,82,54,24,30.52,30.38,5,1,8,0.00
2012-11-16,61.5,46.9,30.9,35.6,28.8,23.0,86,53,24,30.59,30.43,8,2,11,0.00
2012-11-17,65.3,48.6,32.5,34.9,26.5,21.4,78,47,21,30.60,30.41,10,2,11,0.00
2012-11-18,68.5,52.6,38.1,36.6,27.1,18.6,65,41,15,30.50,30.31,11,5,14,0.00
2012-11-19,63.0,54.0,46.8,47.1,43.3,35.9,90,68,50,30.39,30.23,9,3,11,0.09
2012-11-20,71.4,55.8,43.2,51.7,43.5,39.5,96,67,33,30.37,30.21,6,2,8,0.00
2012-11-21,75.4,54.0,35.4,45.3,35.0,21.7,99,59,15,30.43,30.21,8,2,9,0.00
2012-11-22,70.7,60.1,52.3,45.9,41.6,36.9,61,51,40,30.25,30.08,11,4,14,0.00
2012-11-23,33.3,32.5,31.6,18.9,17.7,16.8,55,54,53,30.60,30.59,4,3,6,0.00
2012-11-24,53.1,38.7,22.8,21.8,15.3,7.9,76,41,21,30.60,30.19,7,2,8,0.00
2012-11-25,67.5,52.6,41.0,36.7,28.5,19.3,68,41,24,30.19,29.95,8,3,9,0.00
2012-11-26,52.5,44.5,36.9,44.1,37.4,26.4,99,76,62,30.48,30.06,22,5,31,0.02
2012-11-27,46.6,36.1,26.6,27.4,24.0,19.9,86,63,35,30.58,30.41,11,3,17,0.00
2012-11-28,59.5,41.5,25.7,33.2,27.1,20.8,85,60,31,30.57,30.35,7,2,9,0.00
2012-11-29,66.4,52.3,39.7,33.5,29.8,22.9,72,45,19,30.35,30.16,9,4,12,0.00
2012-11-30,70.5,57.7,48.4,54.5,44.3,28.7,90,62,41,30.24,30.14,8,4,11,0.01
2012-12-1,70.9,63.9,57.6,60.2,57.3,54.4,93,80,63,30.19,29.98,12,6,19,0.00
2012-12-2,77.2,68.7,64.8,62.0,59.8,56.5,86,74,51,30.15,30.05,10,4,13,0.00
2012-12-3,76.1,67.8,63.5,59.7,56.8,51.9,83,69,44,30.09,29.94,14,6,18,0.10
2012-12-4,65.8,54.5,40.6,60.7,44.8,32.4,99,72,35,30.48,30.06,11,4,13,0.86
2012-12-5,59.2,47.0,33.3,37.8,31.7,22.1,93,60,24,30.50,30.21,18,4,22,0.00
2012-12-6,64.0,51.7,39.6,48.9,42.2,32.6,88,71,48,30.21,29.91,11,5,14,0.00
2012-12-7,57.7,52.8,48.7,53.6,50.4,46.9,97,92,81,30.01,29.89,5,1,6,0.00
2012-12-8,59.0,53.6,50.4,54.0,51.1,49.2,99,91,76,30.06,29.92,10,3,12,0.00
2012-12-9,53.6,47.1,29.1,52.9,44.5,18.8,99,91,63,30.20,29.87,11,3,17,0.17
2012-12-10,35.6,26.9,21.6,19.3,15.7,12.3,83,62,49,30.28,30.15,8,3,16,0.00
2012-12-11,50.9,31.6,16.2,25.3,13.3,4.8,89,54,21,30.40,30.18,4,1,7,0.00
2012-12-12,55.2,37.2,22.8,23.3,13.5,7.3,70,41,19,30.45,30.29,8,3,11,0.00
2012-12-13,60.8,46.2,35.8,23.8,18.1,12.0,45,33,20,30.39,30.23,11,4,13,0.00
2012-12-14,55.4,46.4,37.4,43.0,25.6,17.9,91,47,24,30.29,29.93,21,6,27,0.07
2012-12-15,64.0,55.3,47.7,50.2,41.6,34.3,98,63,37,29.94,29.78,17,5,24,0.02
2012-12-16,70.0,55.6,47.5,38.4,34.4,30.5,70,46,23,29.88,29.68,6,2,8,0.00
2012-12-17,47.5,40.8,35.8,39.5,37.1,31.6,99,87,70,29.97,29.83,6,2,8,0.00
2012-12-18,66.0,48.8,35.1,37.6,33.3,27.5,87,59,25,30.00,29.79,8,2,11,0.00
2012-12-19,64.6,54.0,39.7,59.8,47.4,32.5,99,79,64,29.99,29.55,14,6,20,0.22
2012-12-20,55.8,36.5,29.1,53.6,23.9,11.1,95,61,42,30.43,29.55,17,6,24,0.00
2012-12-21,54.0,37.2,24.6,24.3,14.8,8.5,68,42,20,30.51,30.39,4,2,6,0.00
2012-12-22,65.1,46.9,28.4,29.7,18.3,13.8,66,36,16,30.45,30.13,7,3,11,0.00
2012-12-23,65.7,53.9,41.7,49.1,43.4,29.7,85,68,45,30.13,29.88,6,2,8,0.00
2012-12-24,43.9,34.7,26.4,35.8,26.7,22.6,91,73,46,30.20,29.99,14,4,16,0.00
2012-12-25,29.5,25.8,24.3,23.5,18.9,15.3,80,75,65,30.24,30.08,25,13,33,0.01